152  
SXUS52 KJAX 181613  
OSOJAX  
OTHER SURFACE OBSERVATIONS  
NATIONAL WEATHER SERVICE JACKSONVILLE FL  
1200 PM EDT FRI AUG 18 2017  
 
FLZ020>025-030>033-035>038-040-181700-   
..FLORIDA
 
 
 
CITY SKY/WX TMP DP RH WIND PRES REMARKS  
CECIL FIELD PTSUNNY 86 81 84 NW8 30.01F HX 102  
HERLONG FIELD NOT AVBL  
FERNANDINA BCH NOT AVBL  
LAKE CITY FAIR 88 79 74 N5 30.01F HX 102  
JUNIPER SPGS NOT AVBL  
BUNNELL NOT AVBL  
KEYSTONE HGTS PTSUNNY 88 79 74 E5 30.02F HX 102  

 
 
GAZ132>136-149>154-162>166-181700-   
..GEORGIA
 
 
 
CITY SKY/WX TMP DP RH WIND PRES REMARKS  
JESUP FAIR 93 70 46 N3 30.01F  
HOMERVILLE FAIR 91 72 52 N5 30.02F  
SWAINSBORO FAIR 90 73 58 W8 30.01S  
CORDELE NOT AVBL  
EASTMAN FAIR 91 61 36 W6 30.03F  

 
 
PLEASE NOTE: THESE OBSERVATIONS ARE NOT QUALITY CONTROLLED AND MAY  
NOT BE AVAILABLE AT ALL TIMES.  

 
 
 
CLICK HERE TO GO TO PREVIOUS BULLETINS.

The Nexlab FL Page
The Nexlab GA Page Main Text Page